| time (UTC) | temp F | wind direction | speed MPH | gust MPH | rain 1hr in | rain 24hr in | rain mn in | humidity % | barometer mb |
| 20260505060052 | 56 | 155 | 6.0 | 17.0 | 0.00 | 0.00 | 0.00 | 59 | 1008.7 |
| 20260505055548 | 56 | 231 | 5.0 | 16.0 | 0.00 | 0.00 | 0.00 | 59 | 1008.8 |
| 20260505055051 | 56 | 137 | 8.0 | 20.0 | 0.00 | 0.00 | 0.00 | 58 | 1008.8 |
| 20260505054559 | 56 | 162 | 8.0 | 20.0 | 0.00 | 0.00 | 0.00 | 57 | 1008.8 |
| 20260505054047 | 56 | 160 | 8.0 | 16.0 | 0.00 | 0.00 | 0.00 | 57 | 1008.8 |
| 20260505053547 | 57 | 176 | 8.0 | 18.0 | 0.00 | 0.00 | 0.00 | 58 | 1008.8 |
| 20260505053046 | 57 | 169 | 11.0 | 21.0 | 0.00 | 0.00 | 0.00 | 57 | 1008.7 |
| 20260505052545 | 57 | 133 | 9.0 | 21.0 | 0.00 | 0.00 | 0.00 | 57 | 1008.6 |
| 20260505052045 | 57 | 147 | 8.0 | 19.0 | 0.00 | 0.00 | 0.00 | 58 | 1008.6 |
| 20260505051545 | 57 | 147 | 10.0 | 19.0 | 0.00 | 0.00 | 0.00 | 57 | 1008.6 |
| 20260505051045 | 57 | 148 | 11.0 | 20.0 | 0.00 | 0.00 | 0.00 | 57 | 1008.5 |
| 20260505050545 | 58 | 142 | 11.0 | 23.0 | 0.00 | 0.00 | 0.00 | 56 | 1008.4 |
| 20260505041541 | 61 | 174 | 8.0 | 16.0 | 0.00 | 0.00 | 0.00 | 41 | 1007.4 |
| 20260505041041 | 61 | 127 | 6.0 | 13.0 | 0.00 | 0.00 | 0.00 | 41 | 1007.4 |
| 20260505040541 | 61 | 168 | 4.0 | 11.0 | 0.00 | 0.00 | 0.00 | 41 | 1007.3 |
| 20260505040041 | 61 | 155 | 3.0 | 12.0 | 0.00 | 0.00 | 0.00 | 41 | 1007.2 |
| 20260505035541 | 61 | 157 | 5.0 | 12.0 | 0.00 | 0.00 | 0.00 | 41 | 1007.2 |
| 20260505035040 | 61 | 186 | 4.0 | 10.0 | 0.00 | 0.00 | 0.00 | 42 | 1007.2 |
| 20260505034543 | 61 | 89 | 4.0 | 10.0 | 0.00 | 0.00 | 0.00 | 43 | 1007.1 |
| 20260505034040 | 61 | 169 | 3.0 | 8.0 | 0.00 | 0.00 | 0.00 | 44 | 1007.0 |
| 20260505033539 | 61 | 143 | 3.0 | 11.0 | 0.00 | 0.00 | 0.00 | 45 | 1007.0 |
| 20260505033047 | 62 | 203 | 5.0 | 11.0 | 0.00 | 0.00 | 0.00 | 44 | 1007.0 |
| 20260505032538 | 62 | 140 | 5.0 | 11.0 | 0.00 | 0.00 | 0.00 | 43 | 1006.9 |
| 20260505032041 | 62 | 155 | 5.0 | 13.0 | 0.00 | 0.00 | 0.00 | 43 | 1006.9 |
| 20260505031538 | 62 | 270 | 5.0 | 13.0 | 0.00 | 0.00 | 0.00 | 42 | 1006.8 |
| 20260505031038 | 62 | 256 | 4.0 | 13.0 | 0.00 | 0.00 | 0.00 | 41 | 1006.7 |
| 20260505030541 | 63 | 213 | 5.0 | 10.0 | 0.00 | 0.00 | 0.00 | 41 | 1006.7 |
| 20260505030037 | 63 | 159 | 4.0 | 11.0 | 0.00 | 0.00 | 0.00 | 40 | 1006.6 |
| 20260505025538 | 63 | 255 | 5.0 | 11.0 | 0.00 | 0.00 | 0.00 | 40 | 1006.6 |
| 20260505025036 | 63 | 245 | 3.0 | 11.0 | 0.00 | 0.00 | 0.00 | 41 | 1006.5 |
| 20260505024601 | 63 | 143 | 3.0 | 13.0 | 0.00 | 0.00 | 0.00 | 41 | 1006.5 |
| 20260505024040 | 63 | 200 | 6.0 | 13.0 | 0.00 | 0.00 | 0.00 | 41 | 1006.4 |
| 20260505023536 | 64 | 157 | 5.0 | 12.0 | 0.00 | 0.00 | 0.00 | 40 | 1006.3 |
| 20260505023040 | 64 | 158 | 5.0 | 12.0 | 0.00 | 0.00 | 0.00 | 39 | 1006.2 |
| 20260505022536 | 64 | 176 | 4.0 | 11.0 | 0.00 | 0.00 | 0.00 | 37 | 1006.2 |
| 20260505022036 | 64 | 190 | 4.0 | 10.0 | 0.00 | 0.00 | 0.00 | 37 | 1006.2 |
| 20260505021546 | 64 | 111 | 5.0 | 13.0 | 0.00 | 0.00 | 0.00 | 37 | 1006.2 |
| 20260505021035 | 65 | 139 | 7.0 | 12.0 | 0.00 | 0.00 | 0.00 | 37 | 1006.2 |
| 20260505020535 | 65 | 170 | 5.0 | 16.0 | 0.00 | 0.00 | 0.00 | 37 | 1006.1 |
| 20260505020041 | 65 | 115 | 9.0 | 18.0 | 0.00 | 0.00 | 0.00 | 37 | 1006.0 |
| 20260505015534 | 65 | 160 | 8.0 | 18.0 | 0.00 | 0.00 | 0.00 | 36 | 1006.0 |
| 20260505015034 | 65 | 167 | 9.0 | 16.0 | 0.00 | 0.00 | 0.00 | 36 | 1006.0 |
| 20260505014534 | 66 | 172 | 7.0 | 13.0 | 0.00 | 0.00 | 0.00 | 35 | 1006.1 |
| 20260505014033 | 67 | 176 | 6.0 | 13.0 | 0.00 | 0.00 | 0.00 | 33 | 1006.0 |
| 20260505013535 | 67 | 186 | 0.0 | 4.0 | 0.00 | 0.00 | 0.00 | 31 | 1006.0 |
| 20260505013034 | 67 | 221 | 0.0 | 4.0 | 0.00 | 0.00 | 0.00 | 31 | 1006.0 |
| 20260505012532 | 67 | 200 | 0.0 | 4.0 | 0.00 | 0.00 | 0.00 | 31 | 1006.0 |
| 20260505012032 | 67 | 209 | 1.0 | 5.0 | 0.00 | 0.00 | 0.00 | 31 | 1006.0 |
| 20260505011544 | 68 | 151 | 1.0 | 5.0 | 0.00 | 0.00 | 0.00 | 31 | 1005.9 |
| 20260505011032 | 68 | 158 | 0.0 | 4.0 | 0.00 | 0.00 | 0.00 | 31 | 1006.0 |
| 20260505010532 | 68 | 164 | 2.0 | 6.0 | 0.00 | 0.00 | 0.00 | 31 | 1006.1 |
| 20260505010030 | 68 | 154 | 2.0 | 6.0 | 0.00 | 0.00 | 0.00 | 31 | 1006.1 |
| 20260505005530 | 68 | 242 | 0.0 | 1.0 | 0.00 | 0.00 | 0.00 | 33 | 1006.1 |
| 20260505005029 | 67 | 238 | 0.0 | 1.0 | 0.00 | 0.00 | 0.00 | 33 | 1006.2 |
| 20260505004538 | 67 | 1 | 0.0 | 1.0 | 0.00 | 0.00 | 0.00 | 34 | 1006.2 |
| 20260505004029 | 67 | 8 | 0.0 | 6.0 | 0.00 | 0.00 | 0.00 | 33 | 1006.2 |
| 20260505003528 | 67 | 40 | 2.0 | 6.0 | 0.00 | 0.00 | 0.00 | 33 | 1006.2 |
| 20260505003028 | 67 | 30 | 3.0 | 6.0 | 0.00 | 0.00 | 0.00 | 33 | 1006.3 |
| 20260505002528 | 67 | 41 | 1.0 | 4.0 | 0.00 | 0.00 | 0.00 | 33 | 1006.3 |
| 20260505002128 | 67 | 90 | 1.0 | 4.0 | 0.00 | 0.00 | 0.00 | 33 | 1006.3 |
| 20260505001527 | 67 | 86 | 1.0 | 6.0 | 0.00 | 0.00 | 0.00 | 33 | 1006.4 |
| 20260505001026 | 67 | 92 | 2.0 | 7.0 | 0.00 | 0.00 | 0.00 | 33 | 1006.4 |
| 20260505000526 | 67 | 82 | 4.0 | 9.0 | 0.00 | 0.00 | 0.00 | 32 | 1006.4 |
| 20260505000025 | 67 | 78 | 3.0 | 9.0 | 0.00 | 0.00 | 0.00 | 31 | 1006.4 |
| 20260504235525 | 67 | 72 | 5.0 | 12.0 | 0.00 | 0.00 | 0.00 | 32 | 1006.4 |
| 20260504235025 | 67 | 356 | 4.0 | 12.0 | 0.00 | 0.00 | 0.00 | 32 | 1006.5 |
| 20260504234523 | 67 | 60 | 2.0 | 8.0 | 0.00 | 0.00 | 0.00 | 33 | 1006.5 |
| 20260504234023 | 67 | 125 | 3.0 | 8.0 | 0.00 | 0.00 | 0.00 | 33 | 1006.7 |
| 20260504233523 | 67 | 88 | 3.0 | 7.0 | 0.00 | 0.00 | 0.00 | 32 | 1006.7 |
| 20260504233023 | 68 | 134 | 2.0 | 7.0 | 0.00 | 0.00 | 0.00 | 32 | 1006.8 |
| 20260504232523 | 68 | 107 | 4.0 | 8.0 | 0.00 | 0.00 | 0.00 | 31 | 1006.9 |
| 20260504232022 | 68 | 91 | 3.0 | 13.0 | 0.00 | 0.00 | 0.00 | 31 | 1006.8 |
| 20260504231522 | 68 | 64 | 6.0 | 13.0 | 0.00 | 0.00 | 0.00 | 30 | 1006.8 |
| 20260504231022 | 68 | 62 | 5.0 | 13.0 | 0.00 | 0.00 | 0.00 | 30 | 1006.7 |
| 20260504230522 | 68 | 66 | 6.0 | 13.0 | 0.00 | 0.00 | 0.00 | 30 | 1006.6 |
| 20260504230021 | 68 | 88 | 6.0 | 13.0 | 0.00 | 0.00 | 0.00 | 31 | 1006.7 |
| 20260504225522 | 69 | 65 | 8.0 | 13.0 | 0.00 | 0.00 | 0.00 | 31 | 1006.8 |
| 20260504225020 | 68 | 64 | 8.0 | 15.0 | 0.00 | 0.00 | 0.00 | 31 | 1006.8 |
| 20260504224522 | 68 | 113 | 9.0 | 17.0 | 0.00 | 0.00 | 0.00 | 31 | 1006.8 |
| 20260504224020 | 69 | 23 | 8.0 | 17.0 | 0.00 | 0.00 | 0.00 | 30 | 1006.8 |
| 20260504223520 | 70 | 15 | 7.0 | 13.0 | 0.00 | 0.00 | 0.00 | 30 | 1006.7 |
| 20260504223020 | 70 | 51 | 6.0 | 12.0 | 0.00 | 0.00 | 0.00 | 29 | 1006.7 |
| 20260504222519 | 70 | 82 | 4.0 | 9.0 | 0.00 | 0.00 | 0.00 | 28 | 1006.8 |
| 20260504222019 | 70 | 354 | 3.0 | 9.0 | 0.00 | 0.00 | 0.00 | 27 | 1006.6 |
| 20260504221519 | 70 | 335 | 3.0 | 11.0 | 0.00 | 0.00 | 0.00 | 28 | 1006.7 |
| 20260504221019 | 70 | 236 | 3.0 | 11.0 | 0.00 | 0.00 | 0.00 | 29 | 1006.6 |
| 20260504220522 | 69 | 298 | 1.0 | 9.0 | 0.00 | 0.00 | 0.00 | 30 | 1006.6 |
| 20260504220022 | 69 | 231 | 4.0 | 9.0 | 0.00 | 0.00 | 0.00 | 29 | 1006.7 |
| 20260504215517 | 68 | 214 | 3.0 | 12.0 | 0.00 | 0.00 | 0.00 | 30 | 1006.7 |
| 20260504215016 | 67 | 269 | 6.0 | 14.0 | 0.00 | 0.00 | 0.00 | 30 | 1006.8 |
| 20260504214517 | 67 | 248 | 6.0 | 14.0 | 0.00 | 0.00 | 0.00 | 31 | 1006.8 |
| 20260504214017 | 67 | 224 | 8.0 | 13.0 | 0.00 | 0.00 | 0.00 | 32 | 1006.9 |
| 20260504213517 | 67 | 263 | 5.0 | 14.0 | 0.00 | 0.00 | 0.00 | 32 | 1006.9 |
| 20260504213018 | 67 | 266 | 6.0 | 15.0 | 0.00 | 0.00 | 0.00 | 32 | 1006.9 |
| 20260504212516 | 67 | 190 | 7.0 | 15.0 | 0.00 | 0.00 | 0.00 | 31 | 1006.9 |
| 20260504212015 | 68 | 248 | 7.0 | 13.0 | 0.00 | 0.00 | 0.00 | 30 | 1006.9 |
| 20260504211516 | 68 | 243 | 5.0 | 14.0 | 0.00 | 0.00 | 0.00 | 27 | 1006.9 |
| 20260504211015 | 68 | 269 | 5.0 | 14.0 | 0.00 | 0.00 | 0.00 | 27 | 1006.8 |
| 20260504210519 | 68 | 240 | 7.0 | 12.0 | 0.00 | 0.00 | 0.00 | 26 | 1006.9 |
| 20260504210014 | 68 | 282 | 5.0 | 13.0 | 0.00 | 0.00 | 0.00 | 27 | 1006.9 |
| 20260504205517 | 68 | 243 | 6.0 | 15.0 | 0.00 | 0.00 | 0.00 | 27 | 1007.0 |
| 20260504205013 | 69 | 293 | 10.0 | 16.0 | 0.00 | 0.00 | 0.00 | 27 | 1006.9 |
| 20260504204517 | 69 | 273 | 8.0 | 16.0 | 0.00 | 0.00 | 0.00 | 27 | 1007.0 |
| 20260504204013 | 69 | 259 | 6.0 | 11.0 | 0.00 | 0.00 | 0.00 | 29 | 1007.0 |
| 20260504203513 | 69 | 283 | 5.0 | 14.0 | 0.00 | 0.00 | 0.00 | 28 | 1007.0 |
| 20260504203016 | 69 | 271 | 9.0 | 14.0 | 0.00 | 0.00 | 0.00 | 28 | 1007.0 |
| 20260504202514 | 70 | 191 | 6.0 | 12.0 | 0.00 | 0.00 | 0.00 | 29 | 1007.0 |
| 20260504202013 | 71 | 169 | 2.0 | 7.0 | 0.00 | 0.00 | 0.00 | 30 | 1007.0 |
| 20260504201511 | 70 | 243 | 0.0 | 7.0 | 0.00 | 0.00 | 0.00 | 28 | 1007.0 |
| 20260504201012 | 70 | 234 | 3.0 | 7.0 | 0.00 | 0.00 | 0.00 | 29 | 1007.0 |
| 20260504200511 | 70 | 167 | 3.0 | 6.0 | 0.00 | 0.00 | 0.00 | 28 | 1007.1 |
| 20260504200010 | 70 | 124 | 2.0 | 5.0 | 0.00 | 0.00 | 0.00 | 28 | 1007.1 |
| 20260504195509 | 70 | 193 | 2.0 | 5.0 | 0.00 | 0.00 | 0.00 | 28 | 1007.1 |
| 20260504195009 | 70 | 157 | 2.0 | 6.0 | 0.00 | 0.00 | 0.00 | 28 | 1007.2 |
| 20260504194509 | 70 | 252 | 0.0 | 4.0 | 0.00 | 0.00 | 0.00 | 28 | 1007.1 |
| 20260504194008 | 70 | 149 | 0.0 | 6.0 | 0.00 | 0.00 | 0.00 | 29 | 1007.2 |
| 20260504193508 | 71 | 137 | 3.0 | 6.0 | 0.00 | 0.00 | 0.00 | 27 | 1007.3 |
| 20260504193007 | 71 | 153 | 0.0 | 5.0 | 0.00 | 0.00 | 0.00 | 28 | 1007.3 |
| 20260504192507 | 70 | 111 | 3.0 | 6.0 | 0.00 | 0.00 | 0.00 | 28 | 1007.3 |
| 20260504192007 | 71 | 126 | 2.0 | 7.0 | 0.00 | 0.00 | 0.00 | 28 | 1007.3 |
| 20260504191510 | 71 | 70 | 2.0 | 10.0 | 0.00 | 0.00 | 0.00 | 27 | 1007.3 |
| 20260504191006 | 71 | 142 | 5.0 | 10.0 | 0.00 | 0.00 | 0.00 | 27 | 1007.5 |
| 20260504190506 | 72 | 148 | 3.0 | 10.0 | 0.00 | 0.00 | 0.00 | 27 | 1007.5 |
| 20260504190006 | 72 | 125 | 3.0 | 8.0 | 0.00 | 0.00 | 0.00 | 27 | 1007.6 |
| 20260504185504 | 72 | 136 | 5.0 | 9.0 | 0.00 | 0.00 | 0.00 | 26 | 1007.6 |
| 20260504185003 | 72 | 93 | 5.0 | 9.0 | 0.00 | 0.00 | 0.00 | 25 | 1007.7 |
| 20260504184503 | 72 | 114 | 4.0 | 12.0 | 0.00 | 0.00 | 0.00 | 27 | 1007.8 |
| 20260504184103 | 71 | 102 | 2.0 | 12.0 | 0.00 | 0.00 | 0.00 | 29 | 1007.9 |
| 20260504183502 | 71 | 148 | 5.0 | 8.0 | 0.00 | 0.00 | 0.00 | 27 | 1007.8 |
| 20260504183105 | 71 | 171 | 4.0 | 12.0 | 0.00 | 0.00 | 0.00 | 29 | 1007.9 |
| 20260504182559 | 70 | 170 | 5.0 | 12.0 | 0.00 | 0.00 | 0.00 | 29 | 1008.0 |
| 20260504182058 | 70 | 116 | 7.0 | 11.0 | 0.00 | 0.00 | 0.00 | 29 | 1008.1 |
| 20260504181604 | 70 | 128 | 4.0 | 12.0 | 0.00 | 0.00 | 0.00 | 29 | 1008.2 |
| 20260504181057 | 71 | 129 | 6.0 | 12.0 | 0.00 | 0.00 | 0.00 | 29 | 1008.2 |
| 20260504180557 | 70 | 146 | 5.0 | 14.0 | 0.00 | 0.00 | 0.00 | 30 | 1008.3 |
| 20260504180057 | 70 | 173 | 6.0 | 14.0 | 0.00 | 0.00 | 0.00 | 30 | 1008.3 |
| 20260504175555 | 70 | 139 | 8.0 | 15.0 | 0.00 | 0.00 | 0.00 | 30 | 1008.3 |
| 20260504175054 | 70 | 140 | 5.0 | 15.0 | 0.00 | 0.00 | 0.00 | 30 | 1008.4 |
| 20260504174554 | 70 | 126 | 8.0 | 15.0 | 0.00 | 0.00 | 0.00 | 30 | 1008.4 |
| 20260504174053 | 69 | 153 | 6.0 | 15.0 | 0.00 | 0.00 | 0.00 | 31 | 1008.5 |
| 20260504173552 | 69 | 117 | 6.0 | 16.0 | 0.00 | 0.00 | 0.00 | 31 | 1008.6 |
| 20260504173057 | 69 | 160 | 8.0 | 17.0 | 0.00 | 0.00 | 0.00 | 31 | 1008.6 |
| 20260504172550 | 68 | 183 | 7.0 | 15.0 | 0.00 | 0.00 | 0.00 | 31 | 1008.6 |
| 20260504172051 | 68 | 140 | 8.0 | 15.0 | 0.00 | 0.00 | 0.00 | 32 | 1008.8 |
| 20260504171550 | 68 | 131 | 6.0 | 17.0 | 0.00 | 0.00 | 0.00 | 31 | 1008.8 |
| 20260504171050 | 69 | 162 | 8.0 | 17.0 | 0.00 | 0.00 | 0.00 | 31 | 1008.8 |
| 20260504170547 | 68 | 111 | 7.0 | 17.0 | 0.00 | 0.00 | 0.00 | 33 | 1008.9 |
| 20260504151031 | 63 | 99 | 8.0 | 14.0 | 0.00 | 0.00 | 0.00 | 41 | 1009.6 |
| 20260504150533 | 63 | 148 | 7.0 | 12.0 | 0.00 | 0.00 | 0.00 | 42 | 1009.7 |
| 20260504141023 | 61 | 181 | 3.0 | 9.0 | 0.00 | 0.00 | 0.00 | 44 | 1009.9 |
| 20260504140522 | 60 | 229 | 3.0 | 9.0 | 0.00 | 0.00 | 0.00 | 46 | 1010.0 |
| 20260504130520 | 57 | 163 | 2.0 | 7.0 | 0.00 | 0.00 | 0.00 | 50 | 1010.0 |
| 20260504110512 | 59 | 139 | 8.0 | 15.0 | 0.00 | 0.00 | 0.00 | 43 | 1009.9 |
| 20260504100508 | 61 | 174 | 8.0 | 18.0 | 0.00 | 0.00 | 0.00 | 36 | 1009.8 |
| 20260504081557 | 58 | 139 | 3.0 | 7.0 | 0.00 | 0.00 | 0.00 | 31 | 1009.9 |
| 20260504081100 | 58 | 139 | 3.0 | 8.0 | 0.00 | 0.00 | 0.00 | 31 | 1010.0 |
| 20260504080557 | 58 | 172 | 3.0 | 13.0 | 0.00 | 0.00 | 0.00 | 31 | 1010.0 |